This demonstration page uses our WeatherBlox Daily Observations layout. Learn more.

Left ArrowRight Arrow

39.51506, -84.39828

Hourly Observations for March 5, 2017

Temp ( °F °C ) Dew Point ( °F °C ) Humidity (%) Winds ( mph kmh ) Pressure ( in mb ) Visibility ( mi km ) Precip ( " mm )
12:15 am 00:15 Clear 32 0 20 -6.5 62 62 ENE 5 7 30.56 1035 10 16 0.00 0.00
12:35 am 00:35 Clear 32 0 21 -6.1 64 64 NE 5 7 30.56 1035 10 16 0.00 0.00
12:55 am 00:55 Clear 31 -0.3 21 -6.1 65 65 NE 6 9 30.56 1035 10 16 0.00 0.00
1:15 am 01:15 Clear 32 0 21 -6 64 64 NE 5 7 30.56 1035 10 16 0.00 0.00
1:35 am 01:35 Clear 31 -0.3 21 -5.9 66 66 NE 5 7 30.56 1035 10 16 0.00 0.00
1:55 am 01:55 Clear 31 -0.4 21 -6.1 66 66 NE 5 7 30.56 1035 10 16 0.00 0.00
2:15 am 02:15 Clear 31 -0.6 21 -6.1 67 67 NE 3 6 30.56 1035 10 16 0.00 0.00
2:35 am 02:35 Clear 31 -0.7 20 -6.6 65 65 NE 3 6 30.53 1034 10 16 0.00 0.00
2:55 am 02:55 Clear 32 -0.2 20 -6.5 63 63 NE 6 9 30.53 1034 10 16 0.00 0.00
3:15 am 03:15 Clear 31 -0.3 20 -6.6 63 63 NE 5 7 30.53 1034 10 16 0.00 0.00
3:35 am 03:35 Clear 31 -0.7 20 -6.6 65 65 NE 5 7 30.53 1034 10 16 0.00 0.00
3:55 am 03:55 Clear 32 0 20 -6.8 61 61 NE 3 6 30.53 1034 10 16 0.00 0.00
4:15 am 04:15 Clear 30 -0.9 20 -6.9 64 64 NE 3 6 30.53 1034 10 16 0.00 0.00
4:35 am 04:35 Clear 31 -0.5 20 -6.6 64 64 Calm 30.53 1034 10 16 0.00 0.00
4:55 am 04:55 Clear 30 -1.3 20 -6.8 67 67 Calm 30.53 1034 10 16 0.00 0.00
5:15 am 05:15 Clear 29 -1.5 20 -6.7 68 68 Calm 30.53 1034 10 16 0.00 0.00
5:35 am 05:35 Clear 30 -1.3 19 -7 66 66 Calm 30.50 1033 10 16 0.00 0.00
5:55 am 05:55 Clear 29 -1.5 20 -6.5 69 69 NNE 3 6 30.53 1034 10 16 0.00 0.00
6:15 am 06:15 Clear 29 -1.5 20 -6.6 69 69 NNE 3 6 30.53 1034 10 16 0.00 0.00
6:35 am 06:35 Clear 29 -1.5 20 -6.6 69 69 Calm 30.50 1033 10 16 0.00 0.00
6:55 am 06:55 Clear 29 -1.5 20 -6.8 68 68 N 3 6 30.50 1033 10 16 0.00 0.00
7:15 am 07:15 Sunny 29 -1.5 21 -6 72 72 Calm 30.50 1033 10 16 0.00 0.00
7:35 am 07:35 Sunny 29 -1.5 21 -6.1 71 71 N 3 6 30.50 1033 10 16 0.00 0.00
7:55 am 07:55 Sunny 32 0 21 -6.2 63 63 Calm 30.50 1033 10 16 0.00 0.00
8:15 am 08:15 Sunny 34 1.2 22 -5.8 60 60 Calm 30.50 1033 10 16 0.00 0.00
8:35 am 08:35 Sunny 34 1.2 20 -6.9 55 55 Calm 30.50 1033 10 16 0.00 0.00
8:55 am 08:55 Sunny 37 2.7 18 -7.8 46 46 ESE 3 6 30.50 1033 10 16 0.00 0.00
9:15 am 09:15 Sunny 39 4 18 -7.9 42 42 SSE 7 11 30.50 1033 10 16 0.00 0.00
9:35 am 09:35 Sunny 40 4.7 17 -8.4 38 38 ESE 7 11 30.50 1033 10 16 0.00 0.00
9:55 am 09:55 Sunny 42 5.5 17 -8.6 36 36 ESE 9 15 30.48 1032 10 16 0.00 0.00
10:15 am 10:15 Sunny 43 6 17 -8.5 35 35 SE 7 11 30.48 1032 10 16 0.00 0.00
10:35 am 10:35 Sunny 46 7.9 18 -7.7 33 33 SE 6 9 30.45 1031 10 16 0.00 0.00
10:55 am 10:55 Sunny 49 9.6 19 -7.2 30 30 SE 3 6 30.45 1031 10 16 0.00 0.00
11:15 am 11:15 Sunny 49 9.6 17 -8.1 28 28 SSE 6 9 30.42 1030 10 16 0.00 0.00
11:35 am 11:35 Sunny 51 10.5 18 -7.9 27 27 S 7 11 30.42 1030 10 16 0.00 0.00
11:55 am 11:55 Sunny 52 11 18 -7.6 27 27 SE 5 7 30.42 1030 10 16 0.00 0.00
12:15 pm 12:15 Sunny 55 12.5 19 -7.4 24 24 SSE 6 9 30.39 1029 10 16 0.00 0.00
12:35 pm 12:35 Sunny 56 13.1 18 -7.8 23 23 SE 5 7 30.39 1029 10 16 0.00 0.00
12:55 pm 12:55 Sunny 57 13.8 18 -7.8 22 22 SSE 6 9 30.36 1028 10 16 0.00 0.00
1:15 pm 13:15 Sunny 60 15.3 18 -7.6 20 20 ESE 7 11 30.36 1028 10 16 0.00 0.00
1:35 pm 13:35 Sunny 60 15.5 17 -8.5 18 18 SSW 6 9 30.36 1028 10 16 0.00 0.00
1:55 pm 13:55 Sunny 61 16 16 -9 17 17 S 8 13 30.33 1027 10 16 0.00 0.00
2:15 pm 14:15 Partly Cloudy 62 16.6 14 -10.2 15 15 SW 9 15 30.33 1027 10 16 0.00 0.00
2:35 pm 14:35 Partly Cloudy 62 16.6 14 -9.8 15 15 S 10 17 30.30 1026 10 16 0.00 0.00
2:55 pm 14:55 Partly Cloudy 62 16.7 14 -9.9 15 15 S 8 13 30.30 1026 10 16 0.00 0.00
3:15 pm 15:15 Partly Cloudy 65 18.5 15 -9.4 14 14 S 13 20 30.27 1025 10 16 0.00 0.00
3:35 pm 15:35 Partly Cloudy 63 17.1 13 -10.5 14 14 S 10 17 30.27 1025 10 16 0.00 0.00
3:55 pm 15:55 Mostly Cloudy 62 16.9 15 -9.3 16 16 S 9 15 30.27 1025 10 16 0.00 0.00
4:15 pm 16:15 Cloudy 65 18.1 14 -10.2 14 14 S 8 13 30.24 1024 10 16 0.00 0.00
4:35 pm 16:35 Cloudy 66 18.9 9 -12.9 10 10 S 9 15 30.24 1024 10 16 0.00 0.00
4:55 pm 16:55 Mostly Cloudy 69 20.4 8 -13.3 9 9 S 8 13 30.21 1023 10 16 0.00 0.00
5:15 pm 17:15 Partly Cloudy 67 19.5 6 -14.3 9 9 S 12 19 30.21 1023 10 16 0.00 0.00
5:35 pm 17:35 Sunny 64 18 7 -13.7 10 10 S 12 19 30.21 1023 10 16 0.00 0.00
5:55 pm 17:55 Partly Cloudy 62 16.7 12 -11.2 14 14 S 8 13 30.24 1024 10 16 0.00 0.00
6:15 pm 18:15 Partly Cloudy 62 16.6 13 -10.3 15 15 S 8 13 30.24 1024 10 16 0.00 0.00
6:35 pm 18:35 Mostly Cloudy 61 16 14 -10 16 16 S 8 13 30.24 1024 10 16 0.00 0.00
6:55 pm 18:55 Cloudy 60 15.3 18 -7.7 20 20 SSW 5 7 30.24 1024 10 16 0.00 0.00
7:15 pm 19:15 Mostly Cloudy 57 13.8 20 -6.9 23 23 SSW 5 7 30.27 1025 10 16 0.00 0.00
7:35 pm 19:35 Mostly Cloudy 55 12.5 24 -4.3 31 31 SW 3 6 30.27 1025 10 16 0.00 0.00
7:55 pm 19:55 Partly Cloudy 55 12.5 28 -2.1 36 36 SW 3 6 30.27 1025 10 16 0.00 0.00
8:15 pm 20:15 Clear 50 10.1 30 -1.1 46 46 SW 3 6 30.27 1025 10 16 0.00 0.00
8:35 pm 20:35 Clear 49 9.6 32 0 52 52 Calm 30.27 1025 10 16 0.00 0.00
8:55 pm 20:55 Partly Cloudy 49 9.6 30 -1.2 47 47 SW 3 6 30.27 1025 10 16 0.00 0.00
9:15 pm 21:15 Partly Cloudy 49 9.6 33 0.4 53 53 SW 3 6 30.27 1025 10 16 0.00 0.00
9:35 pm 21:35 Mostly Cloudy 47 8.2 32 -0.2 56 56 SW 3 6 30.27 1025 10 16 0.00 0.00
9:55 pm 21:55 Cloudy 49 9.6 30 -1.2 47 47 SW 3 6 30.27 1025 10 16 0.00 0.00
10:15 pm 22:15 Cloudy 55 12.5 28 -2.1 36 36 WSW 3 6 30.27 1025 10 16 0.00 0.00
10:35 pm 22:35 Cloudy 55 12.5 32 -0.1 42 42 Calm 30.27 1025 N/A 0.00 0.00
10:55 pm 22:55 Cloudy 54 12.2 31 -0.7 41 41 Calm 30.27 1025 N/A 0.00 0.00
11:15 pm 23:15 Cloudy 53 11.7 33 0.5 46 46 SW 3 6 30.27 1025 10 16 0.00 0.00
11:35 pm 23:35 Cloudy 55 12.5 29 -1.4 38 38 SSW 6 9 30.27 1025 10 16 0.00 0.00
11:55 pm 23:55 Cloudy 57 13.8 27 -2.9 32 32 SSW 9 15 30.27 1025 10 16 0.00 0.00

Powered by AerisWeather